AVA245 SKRG-SEQM

Flight info

Callsign AVA245
Flight time 1h 15m
Altitude 35000
Route RNG2B RNG UP778 BOKAN/N0445F370 UP778 QIT
Aircraft A320/M-SDE3FGHIRWY/LB1

Departure

Time 2026-04-25 01:54
Airport Jose Maria Córdova International Airport (SKRG)

Arrival

Time 2026-04-25 03:09
Airport Mariscal Sucre International Airport (SEQM)
Time Latitude Longitude Altitude Speed Heading
2026-04-25 01:33 6.17147 -75.42684 7016 ft 0 kts 269°
2026-04-25 01:45 6.17147 -75.42675 7016 ft 4 kts 266°
2026-04-25 01:45 6.17151 -75.42648 7016 ft 4 kts 252°
2026-04-25 01:45 6.17162 -75.42625 7017 ft 4 kts 220°
2026-04-25 01:45 6.17178 -75.42618 7019 ft 1 kts 178°
2026-04-25 01:46 6.17182 -75.42618 7019 ft 0 kts 178°
2026-04-25 01:48 6.17175 -75.42618 7018 ft 3 kts 178°
2026-04-25 01:48 6.17127 -75.42616 7016 ft 15 kts 178°
2026-04-25 01:48 6.17027 -75.42579 7021 ft 15 kts 148°
2026-04-25 01:48 6.16932 -75.42524 7019 ft 17 kts 150°
2026-04-25 01:49 6.16817 -75.42485 7013 ft 19 kts 179°
2026-04-25 01:49 6.16669 -75.42484 7003 ft 23 kts 179°
2026-04-25 01:49 6.16491 -75.42483 6998 ft 28 kts 179°
2026-04-25 01:49 6.16285 -75.42481 6985 ft 31 kts 179°
2026-04-25 01:50 6.16062 -75.42480 6984 ft 33 kts 180°
2026-04-25 01:50 6.15832 -75.42479 6981 ft 33 kts 179°
2026-04-25 01:50 6.15617 -75.42477 6980 ft 21 kts 180°
2026-04-25 01:50 6.15468 -75.42476 6979 ft 22 kts 179°
2026-04-25 01:51 6.15308 -75.42475 6978 ft 23 kts 179°
2026-04-25 01:51 6.15141 -75.42475 6976 ft 25 kts 180°
2026-04-25 01:51 6.15023 -75.42474 6977 ft 0 kts 179°
2026-04-25 01:51 6.15015 -75.42474 6977 ft 6 kts 179°
2026-04-25 01:52 6.14934 -75.42477 6977 ft 14 kts 196°
2026-04-25 01:52 6.14842 -75.42474 6975 ft 14 kts 137°
2026-04-25 01:52 6.14835 -75.42399 6977 ft 6 kts 66°
2026-04-25 01:52 6.14862 -75.42371 6977 ft 6 kts 39°
2026-04-25 01:53 6.14937 -75.42327 6977 ft 18 kts 28°
2026-04-25 01:53 6.15110 -75.42306 6979 ft 48 kts
2026-04-25 01:53 6.15683 -75.42307 6980 ft 114 kts 360°
2026-04-25 01:53 6.16637 -75.42313 7004 ft 161 kts
2026-04-25 01:54 6.17855 -75.42300 7339 ft 184 kts
2026-04-25 01:54 6.19191 -75.42293 7915 ft 199 kts
2026-04-25 01:54 6.20614 -75.42261 8483 ft 211 kts
2026-04-25 01:54 6.22101 -75.42138 9057 ft 217 kts 16°
2026-04-25 01:55 6.23325 -75.41275 9656 ft 222 kts 58°
2026-04-25 01:55 6.23680 -75.39781 10263 ft 227 kts 100°
2026-04-25 01:55 6.22968 -75.38396 10792 ft 229 kts 139°
2026-04-25 01:55 6.21745 -75.37373 11480 ft 223 kts 141°
2026-04-25 01:56 6.20635 -75.36301 12201 ft 219 kts 134°
2026-04-25 01:56 6.19673 -75.35065 12642 ft 230 kts 125°
2026-04-25 01:56 6.18825 -75.33663 13066 ft 242 kts 120°
2026-04-25 01:56 6.18244 -75.32702 13422 ft 244 kts 126°
2026-04-25 01:57 6.14683 -75.31394 14150 ft 271 kts 204°
2026-04-25 01:57 6.13154 -75.32557 14334 ft 288 kts 236°
2026-04-25 01:57 6.12119 -75.34362 14502 ft 310 kts 239°
2026-04-25 01:58 6.10643 -75.36046 14622 ft 335 kts 220°
2026-04-25 01:58 6.08634 -75.37351 14882 ft 352 kts 208°
2026-04-25 01:58 6.06390 -75.38388 15394 ft 358 kts 204°
2026-04-25 01:58 6.04059 -75.39320 15960 ft 363 kts 202°
2026-04-25 01:59 6.01701 -75.40257 16541 ft 366 kts 203°
2026-04-25 01:59 5.99368 -75.41237 17120 ft 370 kts 205°
2026-04-25 01:59 5.96994 -75.42268 17701 ft 374 kts 204°
2026-04-25 01:59 5.94568 -75.43255 18269 ft 378 kts 202°
2026-04-25 02:00 5.92099 -75.44210 18781 ft 382 kts 202°
2026-04-25 02:00 5.89598 -75.45150 19260 ft 386 kts 202°
2026-04-25 02:00 5.87074 -75.46092 19749 ft 389 kts 202°
2026-04-25 02:00 5.84526 -75.47048 20227 ft 392 kts 202°
2026-04-25 02:01 5.81960 -75.48019 20694 ft 396 kts 202°
2026-04-25 02:01 5.80253 -75.48670 21005 ft 398 kts 202°
2026-04-25 02:01 5.76808 -75.49992 21609 ft 402 kts 202°
2026-04-25 02:01 5.74186 -75.51005 22077 ft 405 kts 202°
2026-04-25 02:02 5.71540 -75.52027 22512 ft 409 kts 202°
2026-04-25 02:02 5.68875 -75.53055 22956 ft 412 kts 202°
2026-04-25 02:02 5.66190 -75.54087 23211 ft 415 kts 202°
2026-04-25 02:02 5.63495 -75.55120 23267 ft 415 kts 202°
2026-04-25 02:03 5.61706 -75.55804 23267 ft 415 kts 202°
2026-04-25 02:03 5.59014 -75.56834 23285 ft 415 kts 202°
2026-04-25 02:03 5.56317 -75.57870 23283 ft 414 kts 202°
2026-04-25 02:03 5.53624 -75.58906 23284 ft 414 kts 202°
2026-04-25 02:04 5.50058 -75.60279 23280 ft 415 kts 202°
2026-04-25 02:04 5.47362 -75.61316 23282 ft 415 kts 202°
2026-04-25 02:04 5.45539 -75.62018 23304 ft 415 kts 202°
2026-04-25 02:04 5.41964 -75.63391 23304 ft 415 kts 202°
2026-04-25 02:05 5.39267 -75.64424 23279 ft 415 kts 202°
2026-04-25 02:05 5.37479 -75.65109 23278 ft 415 kts 202°
2026-04-25 02:05 5.34774 -75.66146 23354 ft 418 kts 202°
2026-04-25 02:05 5.32054 -75.67190 23825 ft 420 kts 202°
2026-04-25 02:06 5.29316 -75.68242 24206 ft 422 kts 202°
2026-04-25 02:06 5.26564 -75.69300 24591 ft 424 kts 202°
2026-04-25 02:06 5.23802 -75.70359 24981 ft 426 kts 202°
2026-04-25 02:06 5.21026 -75.71424 25358 ft 428 kts 201°
2026-04-25 02:07 5.18239 -75.72496 25741 ft 430 kts 201°
2026-04-25 02:07 5.15443 -75.73570 26109 ft 432 kts 200°
2026-04-25 02:07 5.12629 -75.74645 26491 ft 433 kts 200°
2026-04-25 02:07 5.09804 -75.75724 26880 ft 435 kts 200°
2026-04-25 02:08 5.07014 -75.76790 27248 ft 436 kts 200°
2026-04-25 02:08 5.04175 -75.77878 27610 ft 438 kts 200°
2026-04-25 02:08 5.01322 -75.78975 27920 ft 440 kts 200°
2026-04-25 02:08 4.98463 -75.80075 28275 ft 441 kts 199°
2026-04-25 02:09 4.95587 -75.81181 28629 ft 443 kts 199°
2026-04-25 02:09 4.92704 -75.82287 29005 ft 445 kts 199°
2026-04-25 02:09 4.89803 -75.83397 29296 ft 447 kts 199°
2026-04-25 02:09 4.86892 -75.84511 29647 ft 449 kts 199°
2026-04-25 02:10 4.83971 -75.85627 29986 ft 450 kts 199°
2026-04-25 02:10 4.81040 -75.86749 30300 ft 452 kts 198°
2026-04-25 02:10 4.78093 -75.87878 30552 ft 454 kts 198°
2026-04-25 02:10 4.75132 -75.89013 30801 ft 456 kts 198°
2026-04-25 02:11 4.72205 -75.90135 31040 ft 458 kts 198°
2026-04-25 02:11 4.69226 -75.91277 31303 ft 459 kts 198°
2026-04-25 02:11 4.66236 -75.92421 31582 ft 460 kts 198°
2026-04-25 02:11 4.63246 -75.93564 31841 ft 460 kts 198°
2026-04-25 02:12 4.60257 -75.94707 32208 ft 459 kts 198°
2026-04-25 02:12 4.57282 -75.95846 32583 ft 457 kts 198°
2026-04-25 02:12 4.54314 -75.96981 32962 ft 456 kts 198°
2026-04-25 02:12 4.51358 -75.98112 33353 ft 454 kts 198°
2026-04-25 02:13 4.48410 -75.99242 33749 ft 453 kts 197°
2026-04-25 02:13 4.45472 -76.00368 34118 ft 451 kts 197°
2026-04-25 02:13 4.42539 -76.01491 34445 ft 451 kts 198°
2026-04-25 02:13 4.39652 -76.02596 34723 ft 450 kts 198°
2026-04-25 02:14 4.36724 -76.03717 35002 ft 451 kts 198°
2026-04-25 02:14 4.30920 -76.05938 35088 ft 442 kts 198°
2026-04-25 02:15 4.25202 -76.08123 35095 ft 439 kts 198°
2026-04-25 02:15 4.19502 -76.10299 35093 ft 438 kts 198°
2026-04-25 02:16 4.13805 -76.12482 35118 ft 438 kts 198°
2026-04-25 02:16 4.08153 -76.14650 35111 ft 438 kts 198°
2026-04-25 02:17 4.02454 -76.16822 35108 ft 438 kts 198°
2026-04-25 02:17 3.96758 -76.18992 35116 ft 438 kts 198°
2026-04-25 02:18 3.91068 -76.21169 35115 ft 438 kts 198°
2026-04-25 02:18 3.85377 -76.23348 35084 ft 438 kts 198°
2026-04-25 02:19 3.79690 -76.25526 35066 ft 437 kts 198°
2026-04-25 02:19 3.74036 -76.27677 35078 ft 437 kts 198°
2026-04-25 02:20 3.68346 -76.29842 35063 ft 438 kts 198°
2026-04-25 02:20 3.62654 -76.32021 35063 ft 438 kts 198°
2026-04-25 02:21 3.56953 -76.34197 35062 ft 439 kts 198°
2026-04-25 02:21 3.51247 -76.36370 35046 ft 439 kts 198°
2026-04-25 02:22 3.45577 -76.38537 35049 ft 439 kts 198°
2026-04-25 02:22 3.39891 -76.40787 35047 ft 441 kts 203°
2026-04-25 02:23 3.34618 -76.43697 35042 ft 443 kts 206°
2026-04-25 02:23 3.29282 -76.46768 35051 ft 443 kts 207°
2026-04-25 02:24 3.23939 -76.49847 35058 ft 443 kts 206°
2026-04-25 02:24 3.18622 -76.52876 35054 ft 442 kts 206°
2026-04-25 02:25 3.13271 -76.55917 35050 ft 442 kts 207°
2026-04-25 02:25 3.07924 -76.58960 35064 ft 442 kts 207°
2026-04-25 02:26 3.02581 -76.62010 35054 ft 442 kts 206°
2026-04-25 02:26 2.97276 -76.65034 35049 ft 442 kts 207°
2026-04-25 02:27 2.91929 -76.68079 35058 ft 442 kts 207°
2026-04-25 02:27 2.86518 -76.71031 35076 ft 445 kts 198°
2026-04-25 02:27 2.83524 -76.71747 35076 ft 443 kts 181°
2026-04-25 02:28 2.80471 -76.71546 35079 ft 440 kts 164°
2026-04-25 02:28 2.77637 -76.70452 35093 ft 437 kts 147°
2026-04-25 02:28 2.75258 -76.68589 35108 ft 436 kts 135°
2026-04-25 02:29 2.71011 -76.64249 35147 ft 437 kts 133°
2026-04-25 02:29 2.66791 -76.59874 35174 ft 437 kts 133°
2026-04-25 02:30 2.62601 -76.55527 35180 ft 437 kts 133°
2026-04-25 02:30 2.60333 -76.53530 35203 ft 436 kts 146°
2026-04-25 02:30 2.57624 -76.52187 35221 ft 436 kts 161°
2026-04-25 02:30 2.54647 -76.51648 35229 ft 438 kts 177°
2026-04-25 02:31 2.51615 -76.51963 35235 ft 441 kts 193°
2026-04-25 02:31 2.48775 -76.53117 35235 ft 445 kts 209°
2026-04-25 02:31 2.46271 -76.54946 35229 ft 446 kts 216°
2026-04-25 02:32 2.41432 -76.58840 35211 ft 447 kts 216°
2026-04-25 02:32 2.36605 -76.62757 35202 ft 447 kts 216°
2026-04-25 02:33 2.31766 -76.66664 35177 ft 447 kts 216°
2026-04-25 02:33 2.26955 -76.70536 35149 ft 447 kts 216°
2026-04-25 02:34 2.22109 -76.74439 35130 ft 448 kts 216°
2026-04-25 02:34 2.17257 -76.78355 35107 ft 448 kts 216°
2026-04-25 02:35 2.12397 -76.82265 35065 ft 449 kts 216°
2026-04-25 02:35 2.07530 -76.86174 35073 ft 449 kts 216°
2026-04-25 02:36 2.02662 -76.90088 35076 ft 449 kts 216°
2026-04-25 02:36 1.97824 -76.93984 35053 ft 450 kts 216°
2026-04-25 02:37 1.92953 -76.97910 35067 ft 450 kts 216°
2026-04-25 02:37 1.88075 -77.01837 35070 ft 450 kts 216°
2026-04-25 02:38 1.83193 -77.05758 35069 ft 450 kts 216°
2026-04-25 02:38 1.78307 -77.09678 35072 ft 450 kts 216°
2026-04-25 02:39 1.73426 -77.13607 35070 ft 451 kts 216°
2026-04-25 02:39 1.68579 -77.17511 35071 ft 451 kts 216°
2026-04-25 02:40 1.63696 -77.21443 35103 ft 451 kts 216°
2026-04-25 02:40 1.58809 -77.25370 35084 ft 451 kts 216°
2026-04-25 02:41 1.53921 -77.29306 35085 ft 451 kts 216°
2026-04-25 02:41 1.49075 -77.33212 35080 ft 451 kts 216°
2026-04-25 02:42 1.44186 -77.37145 35116 ft 451 kts 216°
2026-04-25 02:42 1.39293 -77.41083 35220 ft 452 kts 216°
2026-04-25 02:43 1.34394 -77.45016 35193 ft 452 kts 216°
2026-04-25 02:43 1.29497 -77.48950 35194 ft 452 kts 216°
2026-04-25 02:44 1.24627 -77.52865 35174 ft 452 kts 216°
2026-04-25 02:44 1.19728 -77.56802 35157 ft 452 kts 216°
2026-04-25 02:45 1.14833 -77.60742 35258 ft 452 kts 216°
2026-04-25 02:45 1.09928 -77.64689 35305 ft 452 kts 216°
2026-04-25 02:46 1.05023 -77.68634 35345 ft 453 kts 216°
2026-04-25 02:46 1.00134 -77.72563 34836 ft 455 kts 216°
2026-04-25 02:46 0.97671 -77.74541 34415 ft 453 kts 216°
2026-04-25 02:47 0.95223 -77.76508 33932 ft 450 kts 216°
2026-04-25 02:47 0.92790 -77.78468 33449 ft 447 kts 216°
2026-04-25 02:47 0.90379 -77.80411 32977 ft 444 kts 216°
2026-04-25 02:47 0.87980 -77.82345 32344 ft 442 kts 216°
2026-04-25 02:48 0.85596 -77.84264 31892 ft 439 kts 216°
2026-04-25 02:48 0.83224 -77.86170 31441 ft 436 kts 216°
2026-04-25 02:48 0.80865 -77.88061 30998 ft 433 kts 216°
2026-04-25 02:48 0.78527 -77.89885 30573 ft 430 kts 214°
2026-04-25 02:49 0.76143 -77.91676 30105 ft 428 kts 213°
2026-04-25 02:49 0.73757 -77.93431 29624 ft 425 kts 213°
2026-04-25 02:49 0.71378 -77.95168 29128 ft 422 kts 213°
2026-04-25 02:49 0.69018 -77.96893 28634 ft 419 kts 214°
2026-04-25 02:50 0.66678 -77.98613 28156 ft 416 kts 214°
2026-04-25 02:50 0.64360 -78.00324 27693 ft 413 kts 214°
2026-04-25 02:50 0.62064 -78.02030 27228 ft 410 kts 215°
2026-04-25 02:50 0.59791 -78.03728 26771 ft 406 kts 215°
2026-04-25 02:51 0.57538 -78.05411 26353 ft 403 kts 216°
2026-04-25 02:51 0.55300 -78.07083 25912 ft 400 kts 216°
2026-04-25 02:51 0.53079 -78.08742 25485 ft 397 kts 216°
2026-04-25 02:51 0.50908 -78.10362 25295 ft 394 kts 216°
2026-04-25 02:52 0.48710 -78.11999 25190 ft 395 kts 216°
2026-04-25 02:52 0.46510 -78.13635 24963 ft 393 kts 216°
2026-04-25 02:52 0.44323 -78.15262 24771 ft 391 kts 216°
2026-04-25 02:52 0.42146 -78.16885 24509 ft 390 kts 217°
2026-04-25 02:53 0.39979 -78.18501 24186 ft 387 kts 217°
2026-04-25 02:53 0.37823 -78.20105 23850 ft 385 kts 217°
2026-04-25 02:53 0.35678 -78.21700 23463 ft 384 kts 217°
2026-04-25 02:53 0.33545 -78.23287 23079 ft 381 kts 217°
2026-04-25 02:54 0.31427 -78.24865 22699 ft 378 kts 217°
2026-04-25 02:54 0.29323 -78.26429 22332 ft 375 kts 217°
2026-04-25 02:54 0.27236 -78.27981 21961 ft 373 kts 217°
2026-04-25 02:54 0.25166 -78.29523 21593 ft 370 kts 217°
2026-04-25 02:55 0.23113 -78.31053 21238 ft 367 kts 217°
2026-04-25 02:55 0.21072 -78.32573 20875 ft 364 kts 217°
2026-04-25 02:55 0.19076 -78.34059 20529 ft 362 kts 217°
2026-04-25 02:55 0.17067 -78.35557 20183 ft 359 kts 217°
2026-04-25 02:56 0.15070 -78.37044 19844 ft 357 kts 217°
2026-04-25 02:56 0.13086 -78.38520 19686 ft 355 kts 217°
2026-04-25 02:56 0.11110 -78.39991 19494 ft 354 kts 217°
2026-04-25 02:56 0.09141 -78.41457 19331 ft 353 kts 217°
2026-04-25 02:57 0.07176 -78.42919 19177 ft 352 kts 217°
2026-04-25 02:57 0.05219 -78.44376 19026 ft 350 kts 217°
2026-04-25 02:57 0.03294 -78.45809 18869 ft 349 kts 217°
2026-04-25 02:57 0.01350 -78.47255 18712 ft 348 kts 217°
2026-04-25 02:58 -0.00594 -78.48692 18632 ft 347 kts 215°
2026-04-25 02:58 -0.02710 -78.49856 18461 ft 348 kts 202°
2026-04-25 02:58 -0.05030 -78.50538 18375 ft 348 kts 190°
2026-04-25 02:58 -0.07451 -78.50715 18395 ft 350 kts 178°
2026-04-25 02:59 -0.09873 -78.50493 18398 ft 350 kts 174°
2026-04-25 02:59 -0.12299 -78.50238 18397 ft 350 kts 174°
2026-04-25 02:59 -0.14726 -78.49991 18107 ft 350 kts 175°
2026-04-25 02:59 -0.17137 -78.49779 17676 ft 346 kts 175°
2026-04-25 03:00 -0.19529 -78.49595 17250 ft 344 kts 176°
2026-04-25 03:00 -0.21877 -78.49425 16837 ft 341 kts 176°
2026-04-25 03:00 -0.24238 -78.49252 16423 ft 338 kts 176°
2026-04-25 03:00 -0.26540 -78.49077 16014 ft 326 kts 176°
2026-04-25 03:01 -0.28768 -78.48901 15618 ft 316 kts 175°
2026-04-25 03:01 -0.30926 -78.48730 15229 ft 307 kts 175°
2026-04-25 03:01 -0.33026 -78.48564 14853 ft 299 kts 175°
2026-04-25 03:01 -0.35071 -78.48382 14465 ft 291 kts 170°
2026-04-25 03:02 -0.36971 -78.47786 14098 ft 283 kts 152°
2026-04-25 03:02 -0.38628 -78.46792 14003 ft 272 kts 145°
2026-04-25 03:02 -0.40067 -78.45688 14012 ft 257 kts 139°
2026-04-25 03:02 -0.41313 -78.44473 14011 ft 244 kts 132°
2026-04-25 03:03 -0.42290 -78.43121 14019 ft 239 kts 110°
2026-04-25 03:03 -0.42445 -78.41497 14026 ft 238 kts 76°
2026-04-25 03:03 -0.41655 -78.40074 14029 ft 238 kts 41°
2026-04-25 03:03 -0.40242 -78.39225 14046 ft 239 kts 25°
2026-04-25 03:04 -0.38725 -78.38522 13890 ft 243 kts 24°
2026-04-25 03:04 -0.37180 -78.37831 13467 ft 242 kts 24°
2026-04-25 03:04 -0.35668 -78.37156 13042 ft 240 kts 24°
2026-04-25 03:05 -0.32650 -78.35797 12105 ft 236 kts 24°
2026-04-25 03:05 -0.31157 -78.35123 11632 ft 235 kts 24°
2026-04-25 03:05 -0.29576 -78.34725 11170 ft 236 kts
2026-04-25 03:05 -0.27958 -78.34777 10841 ft 230 kts 358°
2026-04-25 03:06 -0.26397 -78.34844 10544 ft 218 kts 358°
2026-04-25 03:06 -0.24930 -78.34907 10266 ft 205 kts 358°
2026-04-25 03:06 -0.23539 -78.34966 9987 ft 194 kts 358°
2026-04-25 03:06 -0.22232 -78.35022 9731 ft 180 kts 358°
2026-04-25 03:07 -0.21029 -78.35074 9464 ft 167 kts 358°
2026-04-25 03:07 -0.19892 -78.35122 9233 ft 161 kts 358°
2026-04-25 03:07 -0.18802 -78.35168 9012 ft 158 kts 359°
2026-04-25 03:07 -0.17707 -78.35209 8750 ft 157 kts 359°
2026-04-25 03:08 -0.16625 -78.35258 8496 ft 156 kts 357°
2026-04-25 03:08 -0.15545 -78.35309 8248 ft 155 kts 359°
2026-04-25 03:08 -0.14467 -78.35355 7992 ft 154 kts 358°
2026-04-25 03:08 -0.13427 -78.35401 7891 ft 138 kts 358°
2026-04-25 03:09 -0.12714 -78.35431 7864 ft 58 kts 357°
2026-04-25 03:09 -0.12332 -78.35447 7843 ft 53 kts 358°
2026-04-25 03:09 -0.11980 -78.35461 7824 ft 40 kts 357°
2026-04-25 03:09 -0.11765 -78.35500 7822 ft 30 kts 339°
2026-04-25 03:10 -0.11623 -78.35580 7823 ft 16 kts 315°
2026-04-25 03:10 -0.11629 -78.35637 7822 ft 7 kts 218°
2026-04-25 03:10 -0.11661 -78.35643 7823 ft 3 kts 179°
2026-04-25 03:10 -0.11680 -78.35642 7823 ft 8 kts 176°
2026-04-25 03:11 -0.11793 -78.35639 7826 ft 18 kts 178°
2026-04-25 03:11 -0.11914 -78.35635 7828 ft 17 kts 178°
2026-04-25 03:11 -0.12030 -78.35631 7832 ft 16 kts 178°
2026-04-25 03:11 -0.12134 -78.35625 7837 ft 16 kts 176°
2026-04-25 03:12 -0.12273 -78.35619 7842 ft 18 kts 178°
2026-04-25 03:12 -0.12374 -78.35667 7837 ft 16 kts 206°
2026-04-25 03:12 -0.12386 -78.35686 7840 ft 5 kts 304°
2026-04-25 03:12 -0.12360 -78.35780 7842 ft 19 kts 262°
2026-04-25 03:13 -0.12416 -78.35849 7841 ft 8 kts 229°
2026-04-25 03:13 -0.12429 -78.35899 7842 ft 5 kts 265°
2026-04-25 03:13 -0.12430 -78.35915 7838 ft 3 kts 267°
2026-04-25 03:13 -0.12431 -78.35926 7840 ft 0 kts 267°
2026-04-25 03:20 -0.12431 -78.35927 7841 ft 0 kts 267°